Weather in Lapichi

Belarus     53°26′13″N   28°32′32″E
temp.,
°C
wind,
m/s
gust,
m/s
humid.,
%
clouds,
%
prec.,
mm/h
press.,
hPa
HPBL,
m
1 july, fri
fri100:00+18ese22835 0.0 101941
03:00+16ese22845 0.0 102011
06:00+16e11814 0.0 102013
09:00+22ese11610 0.0 1020298
12:00+26ne23550 0.0 10201232
15:00+28ne344812 0.0 10192019
18:00+27ene345297 0.0 1019903
21:00+20e3976100 0.0 1020173
2 july, sat
sat200:00+17ese2283100 0.0 102124
03:00+16se228477 0.0 102124
06:00+17se22855 0.0 102246
09:00+22se34695 0.0 1022466
12:00+26sse335246 0.0 10221357
15:00+28se334529 0.0 10212093
18:00+24se346597 0.0 1021126
21:00+21se377813 0.0 1021142
3 july, sun
sun300:00+18sse348333 0.0 102166
03:00+16s23835 0.0 102152
06:00+16s24787 0.0 102187
09:00+22s23634 0.0 1020344
12:00+27s22505 0.0 10201111
15:00+29s234156 0.0 10192671
18:00+24nw2571100 0.0 1018129
21:00+23nnw117086 0.0 101812
4 july, mon
mon400:00+19w11844 0.0 101911
03:00+18ese11875 0.0 101911
06:00+17s12814 0.0 101815
09:00+23s23645 0.0 1018372
12:00+27s3446100 0.0 10171621
15:00+29ssw3442100 0.0 10162156
18:00+28wsw345392 0.0 10161090
21:00+23w0176100 0.0 101611
5 july, tue
tue500:00+20w118586 0.0 101714
03:00+18wnw228899 0.0 101714
06:00+18nw2389100 0.0 101783
09:00+23nnw337299 0.0 1017459
12:00+25nnw445471 0.1 10171177
15:00+26nw445295 0.1 10171615
18:00+24wnw3465100 0.2 1017442
21:00+18nw3690100 1.3 1017142